Powrót do katalogu

STARLINK-5602

AktywnyŁącznośćVLEO
NORAD 55743·PAYLOAD·🇺🇸 United States

Wystrzelony Mar 3, 2023 z Vandenberg Space Force Base

Loading…

Następne Przeloty (najbliższe 24 godziny)

TLE

ŚwieżeSource: CelesTrak SupGP

Epoka: Sep 15, 2026, 02:42 UTC

1 55743C 23028C   26258.11298611  .00019950  00000+0  16719-2 0  2588
2 55743  69.9994 127.0196 0002516 266.0424 316.2080 14.98320159    19

Śledź STARLINK-5602 w czasie rzeczywistym z AllMySat

Download on the App Store